Regional Weather Roundup
Issued by NWS

Home | Current Version | Previous Version | Graphics & Text | Print | Product List | Glossary On
Versions: 1 2 3 4 5 6 7 8 9 10 11 12 13 14 15 16 17 18 19 20 21 22 23 24 25 26 27 28 29 30 31 32 33 34 35 36 37 38 39 40 41 42 43 44 45 46 47 48 49 50
000
ASUS43 KOAX 301602
RWRNE

WEATHER ROUNDUP FOR NEBRASKA
NATIONAL WEATHER SERVICE OMAHA NE
1100 AM CDT MON MAY 30 2016

NOTES: SATELLITE DATA IS BEING USED TO AUGMENT CLOUD COVER ABOVE
       12000 FEET.
       "FAIR" INDICATES FEW OR NO CLOUDS BELOW 12,000 FEET WITH NO
       SIGNIFICANT WEATHER AND/OR OBSTRUCTIONS TO VISIBILITY.

  * THESE STATIONS DO NOT REPORT WEATHER SUCH AS RAIN...SNOW OR FOG.

NEZ001>004-019>022-054>056-301700-
NEBRASKA PANHANDLE

CITY           SKY/WX    TMP DP  RH WIND       PRES   REMARKS
SCOTTSBLUFF    SUNNY     72  49  44 NW5       29.96F
ALLIANCE       SUNNY     74  48  39 W10       29.95F
CHADRON        SUNNY     74  49  41 SW9       29.90F
SIDNEY         SUNNY     73  50  44 SW6       29.99F
$$

NEZ057>060-069>072-079>082-301700-
SOUTHWEST NEBRASKA

CITY           SKY/WX    TMP DP  RH WIND       PRES   REMARKS
NORTH PLATTE   SUNNY     72  55  55 S8        29.98F
IMPERIAL       SUNNY     69  55  60 S6        29.98F
LEXINGTON      CLOUDY    75  53  45 SW5       29.98F
MCCOOK         SUNNY     73  53  49 S6        29.98F
$$

NEZ005>010-023>029-035>040-094-301700-
NORTH CENTRAL NEBRASKA

CITY           SKY/WX    TMP DP  RH WIND       PRES   REMARKS
VALENTINE      MOSUNNY   71  53  52 S14       29.93F
AINSWORTH      SUNNY     72  55  54 S14       29.95F
BROKEN BOW     SUNNY     72  57  59 VRB3      29.97F
ORD            MOSUNNY   74  56  53 VRB3      29.96F
$$

NEZ041-046>049-061>064-073>077-083>087-301700-
SOUTH CENTRAL NEBRASKA

CITY           SKY/WX    TMP DP  RH WIND       PRES   REMARKS
GRAND ISLAND   CLOUDY    69  57  65 SE6       29.99F
HASTINGS       MOSUNNY   71  62  73 S7        29.99F
KEARNEY *      SUNNY     73  59  60 SE7       29.99F
YORK           CLOUDY    73  63  68 SE7       29.99F
$$

NEZ011>018-030>034-042>045-301700-
NORTHEAST NEBRASKA

CITY           SKY/WX    TMP DP  RH WIND       PRES   REMARKS
NORFOLK        CLOUDY    75  55  49 SE12      29.98F
ALBION         PTSUNNY   72  57  58 S6        29.98F
BLAIR          SUNNY     80  56  42 SE6       30.00S
FREMONT        MOSUNNY   79  56  45 SE8       30.00S
TEKAMAH        SUNNY     81  55  40 S6        29.98F
$$

NEZ050>053-065>068-078-088>093-301700-
SOUTHEAST NEBRASKA

CITY           SKY/WX    TMP DP  RH WIND       PRES   REMARKS
LINCOLN        MOSUNNY   76  63  64 E6        30.00F
OMAHA EPPLEY   PTSUNNY   79  60  52 S8        29.99F
FALLS CITY     SUNNY     81  68  64 S6        30.00S
PLATTSMOUTH    SUNNY     80  63  55 S8        30.00F
$$

NEZ044-045-051>053-067-301700-
OMAHA AREA

CITY           SKY/WX    TMP DP  RH WIND       PRES   REMARKS
OMAHA EPPLEY   PTSUNNY   79  60  52 S8        29.99F
BLAIR          SUNNY     80  56  42 SE6       30.00S
FREMONT        MOSUNNY   79  56  45 SE8       30.00S
OFFUTT AFB     SUNNY     79  64  58 SW8       29.99F
PLATTSMOUTH    SUNNY     80  63  55 S8        30.00F
$$




USA.gov is the U.S. government's official web portal to all federal, state and local government web resources and services.